{"data":{"norad_id":68385,"epoch":"2026-05-24T23:10:59.362176Z","epoch_age_seconds":71789,"freshness":"FRESH","line1":"1 68385U 26063F   26144.96596484  .00015293  00000+0  47505-3 0  9998","line2":"2 68385  97.2852 287.5123 0001334  93.3997 266.7399 15.33445979  9588","mean_motion":15.33445979,"eccentricity":0.0001334,"inclination_deg":97.2852,"raan_deg":287.5123,"arg_perigee_deg":93.3997,"mean_anomaly_deg":266.7399,"bstar":0.00047505,"rev_number":958,"period_min":93.906144704169,"perigee_km":464.62731511776,"apogee_km":466.45320821117,"semimajor_km":6843.6772616645,"source":"CELESTRAK","updated_at":"2026-05-25T13:38:21.929132Z"}}